EZR680 TNCB-TNCC

Flight info

Callsign EZR680
Flight time N/A
Altitude 12000
Route CUR1R ODLAP BON1B
Aircraft BE20/L-SBGRY/S

Departure

Time 2026-05-03 21:19
Airport Flamingo International Airport (TNCB)

Arrival

Time N/A
Airport Hato International Airport (TNCC)
Time Latitude Longitude Altitude Speed Heading
2026-05-03 20:58 12.13269 -68.27648 25 ft 0 kts 47°
2026-05-03 21:17 12.13269 -68.27646 23 ft 1 kts 53°
2026-05-03 21:17 12.13256 -68.27640 24 ft 6 kts 195°
2026-05-03 21:17 12.13203 -68.27666 24 ft 9 kts 258°
2026-05-03 21:17 12.13204 -68.27719 24 ft 8 kts 272°
2026-05-03 21:18 12.13186 -68.27770 24 ft 8 kts 187°
2026-05-03 21:18 12.13116 -68.27767 23 ft 12 kts 150°
2026-05-03 21:18 12.13107 -68.27681 24 ft 16 kts 91°
2026-05-03 21:18 12.13099 -68.27377 23 ft 76 kts 91°
2026-05-03 21:19 12.13083 -68.26671 178 ft 114 kts 91°
2026-05-03 21:19 12.13072 -68.25803 563 ft 129 kts 89°
2026-05-03 21:19 12.13084 -68.24870 1023 ft 135 kts 89°
2026-05-03 21:19 12.13084 -68.23903 1558 ft 135 kts 90°
2026-05-03 21:20 12.13080 -68.22961 2079 ft 132 kts 89°
2026-05-03 21:20 12.13093 -68.22031 2600 ft 130 kts 90°
2026-05-03 21:20 12.13128 -68.21124 3117 ft 126 kts 89°
2026-05-03 21:20 12.13170 -68.20228 3547 ft 129 kts 90°
2026-05-03 21:21 12.13537 -68.19372 3886 ft 143 kts 51°
2026-05-03 21:21 12.14286 -68.18668 4245 ft 148 kts 48°
2026-05-03 21:21 12.15053 -68.17943 4621 ft 152 kts 50°
2026-05-03 21:21 12.15831 -68.17206 5000 ft 154 kts 50°
2026-05-03 21:22 12.16599 -68.16451 5377 ft 151 kts 61°
2026-05-03 21:22 12.16756 -68.15449 5727 ft 146 kts 110°
2026-05-03 21:22 12.16052 -68.14720 6069 ft 153 kts 159°
2026-05-03 21:22 12.14985 -68.14825 6421 ft 165 kts 205°
2026-05-03 21:23 12.14147 -68.15686 6638 ft 183 kts 229°
2026-05-03 21:23 12.13288 -68.16754 6561 ft 204 kts 226°
2026-05-03 21:23 12.12382 -68.17900 6481 ft 215 kts 227°
2026-05-03 21:23 12.11611 -68.19253 6377 ft 224 kts 253°
2026-05-03 21:24 12.11488 -68.20818 6273 ft 220 kts 269°
2026-05-03 21:24 12.11525 -68.22386 6155 ft 221 kts 270°
2026-05-03 21:24 12.11580 -68.23953 6037 ft 220 kts 271°
2026-05-03 21:24 12.11628 -68.25477 6004 ft 214 kts 270°
2026-05-03 21:25 12.11673 -68.26987 6001 ft 211 kts 270°
2026-05-03 21:25 12.11717 -68.28474 5996 ft 209 kts 269°
2026-05-03 21:25 12.11774 -68.29965 5992 ft 210 kts 271°
2026-05-03 21:25 12.11827 -68.31453 5993 ft 210 kts 270°
2026-05-03 21:26 12.11893 -68.32943 5993 ft 211 kts 270°
2026-05-03 21:26 12.11997 -68.34425 5992 ft 209 kts 278°
2026-05-03 21:26 12.12295 -68.35873 5993 ft 208 kts 282°
2026-05-03 21:26 12.12614 -68.37309 5994 ft 207 kts 282°
2026-05-03 21:27 12.12938 -68.38743 5989 ft 208 kts 282°
2026-05-03 21:27 12.13275 -68.40195 5991 ft 211 kts 283°
2026-05-03 21:27 12.13615 -68.41663 5992 ft 213 kts 282°
2026-05-03 21:27 12.13965 -68.43139 5992 ft 214 kts 283°
2026-05-03 21:28 12.14306 -68.44614 5990 ft 213 kts 282°
2026-05-03 21:28 12.14648 -68.46088 5990 ft 213 kts 282°
2026-05-03 21:28 12.15013 -68.47550 5993 ft 212 kts 284°
2026-05-03 21:28 12.15379 -68.49008 5995 ft 212 kts 284°
2026-05-03 21:29 12.15742 -68.50466 5999 ft 211 kts 284°
2026-05-03 21:29 12.16098 -68.51915 6002 ft 210 kts 284°
2026-05-03 21:29 12.16450 -68.53359 6005 ft 209 kts 283°
2026-05-03 21:29 12.16806 -68.54801 6004 ft 209 kts 283°
2026-05-03 21:30 12.17163 -68.56239 5996 ft 210 kts 283°
2026-05-03 21:30 12.17532 -68.57701 5991 ft 214 kts 283°
2026-05-03 21:30 12.17908 -68.59175 5993 ft 214 kts 283°
2026-05-03 21:30 12.18283 -68.60652 5999 ft 215 kts 283°
2026-05-03 21:31 12.18664 -68.62138 5995 ft 216 kts 283°
2026-05-03 21:31 12.19042 -68.63622 5997 ft 215 kts 283°
2026-05-03 21:31 12.19421 -68.65100 6005 ft 215 kts 283°
2026-05-03 21:31 12.19792 -68.66560 6008 ft 210 kts 284°
2026-05-03 21:32 12.20149 -68.68003 6009 ft 209 kts 283°
2026-05-03 21:32 12.20506 -68.69436 6007 ft 208 kts 283°
2026-05-03 21:32 12.20872 -68.70856 6006 ft 208 kts 284°
2026-05-03 21:32 12.21232 -68.72287 6003 ft 208 kts 284°
2026-05-03 21:33 12.21585 -68.73716 6010 ft 208 kts 283°
2026-05-03 21:33 12.21946 -68.75149 6009 ft 208 kts 283°
2026-05-03 21:33 12.22317 -68.76598 6002 ft 213 kts 284°
2026-05-03 21:33 12.22694 -68.78066 6002 ft 214 kts 283°